Stations météo

Publicité
Ajaccio, France (7761): Température de l'air & dewpoint: 20.06.2017 17:00:00 - 26.06.2017 17:00:00 (CEST)Ajaccio, France (7761): Température de l'air 5cm: 20.06.2017 17:00:00 - 26.06.2017 17:00:00 (CEST)Ajaccio, France (7761): Température de l'air -20cm & Température de l'air -100cm: 20.06.2017 17:00:00 - 26.06.2017 17:00:00 (CEST)Ajaccio, France (7761): Vitesse du vent & gusts: 20.06.2017 17:00:00 - 26.06.2017 17:00:00 (CEST)Ajaccio, France (7761): Direction du vent: 20.06.2017 17:00:00 - 26.06.2017 17:00:00 (CEST)Ajaccio, France (7761): reduced air pressure: 20.06.2017 17:00:00 - 26.06.2017 17:00:00 (CEST)Ajaccio, France (7761): visibility: 20.06.2017 17:00:00 - 26.06.2017 17:00:00 (CEST)Ajaccio, France (7761): Ensoleillement: 20.06.2017 17:00:00 - 26.06.2017 17:00:00 (CEST)Ajaccio, France (7761): Quantités de précipitations: 20.06.2017 17:00:00 - 26.06.2017 17:00:00 (CEST)
Date & Time tt [°C] td [°C] tt 5cm [°C] tt -20cm [°C] tt -100cm [°C] ff [km/h] ff [knt] fx [km/h] fx [knt] dd ppp [hPa] vv [km] sd [min] rr [mm]
26.06.2017 17:00:00 30,1 17,2 31,0 32,1 28,2 6 3 19 11 S 1011,1 40 18 0,0
26.06.2017 16:00:00 29,7 20,8 33,4 31,9 28,2 15 8 25 13 SSW 1012,7 40 60 0,0
26.06.2017 15:00:00 30,1 21,2 37,4 31,7 28,2 19 10 35 19 SW 1013,2 40 60 0,0
26.06.2017 14:00:00 28,8 21,8 37,6 31,7 28,2 21 11 28 15 WSW 1013,2 40 60 0,0
26.06.2017 13:00:00 28,9 21,4 37,0 31,7 28,1 18 10 28 15 SW 1013,3 40 60 0,0
26.06.2017 12:00:00 28,2 20,5 30,6 31,8 28,1 21 11 27 15 SSW 1013,4 40 51 0,0
26.06.2017 11:00:00 26,5 19,1 31,8 32,0 28,1 11 6 15 8 WSW 1012,8 20 39 0,0
26.06.2017 10:00:00 26,5 17,8 31,3 32,1 28,1 5 3 14 8 SSW 1013,3 40 35 0,0
26.06.2017 09:00:00 26,8 12,1 26,5 32,3 28,1 4 2 11 6 ESE 1013,1 40 60 0,0
26.06.2017 08:00:00 22,0 13,9 19,9 32,5 28,1 7 4 13 7 NNE 1013,1 20 58 0,0
26.06.2017 07:00:00 19,2 13,4 17,7 32,7 28,1 11 6 14 8 NE 1013,0 25 30 0,0
26.06.2017 06:00:00 18,2 14,3 17,3 32,9 28,1 11 6 19 11 NE 1012,9 28 0 0,0
26.06.2017 05:00:00 18,2 15,4 17,6 33,0 28,1 11 6 14 8 NE 1013,3 16 0 0,0
26.06.2017 04:00:00 19,2 17,2 18,6 33,2 28,1 8 4 12 7 ENE 1013,5 13 0 0,0
26.06.2017 03:00:00 20,8 18,7 19,9 33,3 28,1 9 5 11 6 NE 1013,7 16 0 0,0
26.06.2017 02:00:00 21,6 19,7 20,4 33,4 28,1 6 3 9 5 NNE 1014,4 11 0 0,0
26.06.2017 01:00:00 21,9 19,5 20,8 33,5 28,1 2 1 9 5 SSW 1014,9 8 0 0,0
26.06.2017 00:00:00 23,2 20,3 22,1 33,5 28,1 8 5 11 6 NNE 1014,9 14 0 0,0
25.06.2017 23:00:00 24,1 20,4 23,3 33,4 28,1 6 3 15 8 ENE 1015,0 18 0 0,0
25.06.2017 22:00:00 24,7 21,2 24,2 33,3 28,0 11 6 15 8 SSW 1014,5 19 0 0,0
25.06.2017 21:00:00 24,9 21,0 25,0 33,1 28,1 10 5 19 10 SSW 1013,6 20 26 0,0
25.06.2017 20:00:00 26,2 21,2 28,8 33,0 28,0 13 7 22 12 SSW 1013,7 27 60 0,0
25.06.2017 19:00:00 27,2 21,2 31,7 32,7 28,0 16 9 22 12 SW 1014,0 43 60 0,0
25.06.2017 18:00:00 27,5 21,1 30,5 32,6 28,0 16 8 21 11 SW 1014,2 25 60 0,0
25.06.2017 17:00:00 27,9 21,2 31,0 32,4 28,0 17 9 27 15 SSW 1014,7 54 60 0,0
25.06.2017 16:00:00 28,8 21,3 33,3 32,2 28,0 17 9 30 16 SW 1015,3 30 60 0,0
25.06.2017 15:00:00 28,5 22,0 29,3 32,1 28,0 14 8 24 13 SW 1015,5 30 17 0,0
25.06.2017 14:00:00 28,0 21,3 33,9 32,0 28,0 19 11 33 18 SW 1016,1 30 42 0,0
25.06.2017 13:00:00 29,3 20,7 36,0 32,0 28,0 22 12 29 16 SW 1015,4 30 60 0,0
25.06.2017 12:00:00 28,2 21,0 36,4 32,1 28,0 18 10 24 13 SSW 1015,4 30 60 0,0
25.06.2017 11:00:00 27,3 20,6 34,8 32,2 28,0 15 8 22 12 WSW 1016,2 20 60 0,0
25.06.2017 10:00:00 26,7 21,2 33,2 32,4 28,0 10 5 15 8 SSW 1015,6 20 60 0,0
25.06.2017 09:00:00 25,4 20,9 27,3 32,5 28,0 6 3 17 9 WSW 1015,9 20 60 0,0
25.06.2017 08:00:00 23,3 19,5 21,9 32,7 27,9 6 3 14 8 NNE 1015,9 20 60 0,0
25.06.2017 07:00:00 20,6 18,9 19,8 32,9 27,9 6 4 9 5 NE 1016,4 18 11 0,0
25.06.2017 06:00:00 20,6 18,9 19,7 33,0 27,9 6 3 7 4 NE 1016,4 18 0 0,0
25.06.2017 05:00:00 21,2 19,1 20,2 33,2 28,0 0 0 10 5 N 1016,2 13 0 0,0
25.06.2017 04:00:00 21,7 19,6 20,8 33,3 27,9 7 4 11 6 NNE 1016,3 12 0 0,0
25.06.2017 03:00:00 22,0 19,9 21,3 33,4 27,9 9 5 11 6 NNE 1016,8 11 0 0,0
25.06.2017 02:00:00 22,5 20,4 21,7 33,5 27,9 6 3 8 4 E 1016,9 11 0 0,0
25.06.2017 01:00:00 22,8 20,5 22,2 33,5 27,9 7 4 8 5 NE 1017,1 11 0 0,0
25.06.2017 00:00:00 23,4 20,9 22,7 33,5 27,9 6 3 8 4 ENE 1017,4 11 0 0,0
24.06.2017 23:00:00 24,4 21,7 23,5 33,5 27,9 3 1 4 2 NE 1017,4 14 0 0,0
24.06.2017 22:00:00 24,8 21,9 24,4 33,3 27,9 4 2 9 5 SW 1017,1 19 0 0,0
24.06.2017 21:00:00 25,2 21,9 25,6 33,1 27,9 6 3 16 9 SSW 1016,7 20 5 0,0
24.06.2017 20:00:00 26,0 21,9 27,9 32,9 27,9 9 5 17 9 SW 1016,7 27 51 0,0
24.06.2017 19:00:00 27,2 22,2 31,3 32,7 27,9 14 7 28 15 SSW 1017,1 20 60 0,0
24.06.2017 18:00:00 27,8 22,1 32,3 32,4 27,9 18 10 30 16 SSW 1016,7 42 60 0,0
24.06.2017 17:00:00 28,1 22,3 32,6 32,1 27,9 19 10 24 13 SW 1017,0 20 60 0,0
24.06.2017 16:00:00 28,3 22,1 32,6 31,9 27,9 18 10 27 15 SSW 1017,3 20 60 0,0
24.06.2017 15:00:00 28,7 22,0 35,4 31,7 27,9 19 10 26 14 SSW 1017,6 30 60 0,0
24.06.2017 14:00:00 28,8 22,1 37,9 31,6 27,8 19 10 24 13 SW 1017,9 30 60 0,0
24.06.2017 13:00:00 28,8 21,8 37,6 31,6 27,8 17 9 22 12 SW 1018,1 30 60 0,0
24.06.2017 12:00:00 28,0 21,8 36,9 31,7 27,9 14 8 18 10 SW 1018,2 30 60 0,0
24.06.2017 11:00:00 27,3 21,3 35,7 31,8 27,8 11 6 21 11 WSW 1018,5 30 60 0,0
24.06.2017 10:00:00 26,5 20,8 33,3 31,9 27,8 8 5 11 6 WSW 1018,8 30 60 0,0
24.06.2017 09:00:00 25,9 18,6 28,2 32,1 27,8 7 4 11 6 WSW 1018,8 30 60 0,0
24.06.2017 08:00:00 24,3 17,1 22,3 32,3 27,8 4 2 8 4 NNE 1018,8 30 60 0,0
24.06.2017 07:00:00 21,0 16,4 20,0 32,4 27,8 5 3 7 4 NE 1018,7 30 23 0,0
24.06.2017 06:00:00 20,9 16,1 20,2 32,6 27,8 4 2 11 6 ESE 1018,5 35 0 0,0
24.06.2017 05:00:00 20,9 16,3 20,1 32,8 27,8 8 4 16 9 NNE 1018,5 38 0 0,0
24.06.2017 04:00:00 20,6 16,2 20,1 32,9 27,8 10 5 16 9 NE 1018,9 31 0 0,0
24.06.2017 03:00:00 20,8 16,4 20,2 33,0 27,8 6 4 13 7 NNE 1019,1 41 0 0,0
24.06.2017 02:00:00 21,4 16,8 20,9 33,1 27,8 11 6 14 7 NE 1019,2 40 0 0,0
24.06.2017 01:00:00 21,9 17,1 21,2 33,2 27,8 9 5 12 7 NE 1019,3 38 0 0,0
24.06.2017 00:00:00 22,5 17,4 21,5 33,2 27,8 6 4 11 6 NE 1019,7 47 0 0,0
23.06.2017 23:00:00 22,8 17,0 22,2 33,2 27,7 4 2 7 4 ENE 1020,0 42 0 0,0
23.06.2017 22:00:00 24,5 18,7 23,3 33,0 27,7 3 2 6 3 ENE 1019,6 46 0 0,0
23.06.2017 21:00:00 25,2 18,4 25,1 32,9 27,7 4 2 14 8 E 1019,1 49 0 0,0
23.06.2017 20:00:00 26,5 21,3 27,7 32,7 27,7 10 5 19 10 S 1018,9 49 38 0,0
23.06.2017 19:00:00 26,4 21,4 27,7 32,5 27,7 14 8 21 11 SSW 1018,9 47 25 0,0
23.06.2017 18:00:00 28,0 21,8 30,5 32,2 27,7 16 8 22 12 SSW 1019,0 35 57 0,0
23.06.2017 17:00:00 27,9 21,2 30,9 32,0 27,7 17 9 26 14 SSW 1019,4 30 44 0,0
23.06.2017 16:00:00 28,3 21,3 31,9 31,8 27,7 20 11 28 15 SSW 1019,7 30 60 0,0
23.06.2017 15:00:00 28,5 21,0 33,4 31,6 27,7 21 11 31 17 SSW 1019,9 30 60 0,0
23.06.2017 14:00:00 28,5 21,5 34,4 31,5 27,7 23 13 32 17 SSW 1020,0 30 60 0,0
23.06.2017 13:00:00 28,7 21,7 35,3 31,6 27,7 19 10 26 14 SW 1020,3 30 60 0,0
23.06.2017 12:00:00 28,2 21,5 33,8 31,6 27,7 18 10 26 14 SSW 1020,5 30 60 0,0
23.06.2017 11:00:00 27,7 20,5 34,5 31,7 27,7 16 9 27 15 SSW 1020,7 30 60 0,0
23.06.2017 10:00:00 26,8 17,6 33,3 31,9 27,6 10 6 13 7 SW 1020,5 30 60 0,0
23.06.2017 09:00:00 26,6 16,5 28,3 32,1 27,6 6 4 10 5 SSW 1020,2 30 60 0,0
23.06.2017 08:00:00 24,0 16,0 21,4 32,3 27,7 6 4 14 8 NE 1019,9 36 60 0,0
23.06.2017 07:00:00 19,8 15,4 18,1 32,5 27,7 11 6 16 9 NE 1019,8 30 31 0,0
23.06.2017 06:00:00 19,0 15,1 18,2 32,6 27,6 10 6 14 8 NE 1019,4 30 0 0,0
23.06.2017 05:00:00 19,1 15,2 18,1 32,8 27,6 10 6 14 8 NE 1019,2 32 0 0,0
23.06.2017 04:00:00 19,9 15,3 19,2 32,9 27,6 4 2 9 5 NE 1019,0 29 0 0,0
23.06.2017 03:00:00 21,2 15,5 20,2 33,1 27,7 6 3 13 7 ENE 1019,1 36 0 0,0
23.06.2017 02:00:00 21,8 15,6 21,2 33,1 27,6 9 5 11 6 NE 1019,2 40 0 0,0
23.06.2017 01:00:00 22,6 15,7 21,8 33,2 27,6 7 4 10 6 NNE 1019,7 43 0 0,0
23.06.2017 00:00:00 23,4 16,0 22,6 33,2 27,6 7 4 12 6 NE 1019,4 44 0 0,0
22.06.2017 23:00:00 24,0 15,2 23,0 33,1 27,6 7 4 9 5 ENE 1019,1 44 0 0,0
22.06.2017 22:00:00 25,5 15,2 24,6 33,0 27,6 7 4 9 5 E 1018,8 52 0 0,0
22.06.2017 21:00:00 26,4 17,2 25,9 32,8 27,6 8 4 26 14 NW 1018,4 57 21 0,0
22.06.2017 20:00:00 28,4 17,0 29,5 32,5 27,6 13 7 20 11 NW 1018,2 55 60 0,0
22.06.2017 19:00:00 29,3 18,7 31,6 32,2 27,6 10 5 23 12 SSW 1018,0 43 60 0,0
22.06.2017 18:00:00 29,3 19,6 31,5 31,9 27,6 16 8 24 13 S 1017,8 30 60 0,0
22.06.2017 17:00:00 28,7 20,4 31,2 31,7 27,6 19 11 27 14 SSW 1018,0 30 60 0,0
22.06.2017 16:00:00 28,9 19,8 33,9 31,5 27,6 19 11 29 15 SW 1018,2 30 60 0,0
22.06.2017 15:00:00 29,1 20,3 34,5 31,3 27,6 20 11 28 15 SW 1018,5 30 60 0,0
22.06.2017 14:00:00 28,2 21,2 34,5 31,2 27,5 19 11 26 14 SSW 1018,8 30 60 0,0
22.06.2017 13:00:00 28,0 20,6 37,4 31,2 27,5 19 11 26 14 SSW 1019,0 30 60 0,0
22.06.2017 12:00:00 27,5 19,8 36,5 31,3 27,5 17 9 23 13 SW 1018,7 30 60 0,0
22.06.2017 11:00:00 26,7 19,1 34,8 31,4 27,5 16 8 21 11 SW 1018,5 30 60 0,0
22.06.2017 10:00:00 26,1 16,6 33,4 31,6 27,5 12 7 16 9 SW 1018,6 60 60 0,0
22.06.2017 09:00:00 26,4 15,4 26,6 31,7 27,5 6 3 11 6 SW 1018,4 40 60 0,0
22.06.2017 08:00:00 22,9 13,9 20,8 32,0 27,5 8 5 13 7 NE 1018,1 47 60 0,0
22.06.2017 07:00:00 19,1 13,5 17,3 32,2 27,5 9 5 13 7 NE 1018,0 40 32 0,0
22.06.2017 06:00:00 17,9 13,0 16,8 32,3 27,5 11 6 16 9 NE 1017,8 48 0 0,0
22.06.2017 05:00:00 18,3 13,4 17,5 32,5 27,5 11 6 16 8 NE 1017,5 10 0 0,0
22.06.2017 04:00:00 18,8 13,2 18,0 32,7 27,5 10 6 16 9 NE 1017,4 51 0 0,0
22.06.2017 03:00:00 19,6 13,5 18,9 32,8 27,5 11 6 15 8 NE 1017,4 50 0 0,0
22.06.2017 02:00:00 19,5 14,3 18,7 32,9 27,5 9 5 13 7 NE 1017,6 46 0 0,0
22.06.2017 01:00:00 20,9 15,2 20,2 32,9 27,5 5 3 8 4 NE 1017,6 35 0 0,0
22.06.2017 00:00:00 22,1 15,9 21,4 32,9 27,5 7 4 11 6 NE 1017,3 44 0 0,0
21.06.2017 23:00:00 23,7 17,2 22,8 32,8 27,5 6 3 9 5 E 1017,0 38 0 0,0
21.06.2017 22:00:00 24,6 16,1 23,5 32,7 27,5 6 3 11 6 ENE 1016,6 42 0 0,0
21.06.2017 21:00:00 26,4 15,4 26,2 32,5 27,5 6 3 14 7 WSW 1016,2 59 28 0,0
21.06.2017 20:00:00 28,1 17,3 30,0 32,2 27,4 11 6 19 10 S 1015,7 56 60 0,0
21.06.2017 19:00:00 28,3 19,2 31,4 32,0 27,4 15 8 21 12 SSW 1015,4 60 60 0,0
21.06.2017 18:00:00 28,6 19,2 30,6 31,7 27,4 15 8 28 15 S 1015,8 53 60 0,0
21.06.2017 17:00:00 28,3 20,3 30,0 31,4 27,4 19 11 30 16 S 1016,3 40 60 0,0
21.06.2017 16:00:00 28,1 20,6 30,7 31,2 27,4 23 13 31 17 S 1016,4 40 60 0,0
21.06.2017 15:00:00 28,0 20,6 32,8 31,1 27,4 24 13 34 18 S 1016,6 40 60 0,0
21.06.2017 14:00:00 28,5 20,2 34,0 31,0 27,4 24 13 31 17 S 1017,0 40 60 0,0
21.06.2017 13:00:00 28,1 20,9 33,9 30,9 27,4 22 12 29 16 S 1017,3 40 60 0,0
21.06.2017 12:00:00 27,6 19,9 35,4 31,1 27,4 18 10 24 13 SSW 1017,6 40 60 0,0
21.06.2017 11:00:00 26,3 17,6 34,9 31,2 27,4 16 9 22 12 SW 1017,4 40 60 0,0
21.06.2017 10:00:00 26,1 14,9 32,3 31,3 27,4 11 6 15 8 SW 1017,4 40 60 0,0
21.06.2017 09:00:00 25,2 12,8 26,4 31,5 27,4 7 4 10 5 SW 1017,3 40 60 0,0
21.06.2017 08:00:00 22,6 11,3 20,4 31,7 27,4 4 2 11 6 NNE 1017,1 48 60 0,0
21.06.2017 07:00:00 18,6 10,7 16,8 32,0 27,4 8 4 19 11 NE 1017,1 40 32 0,0
21.06.2017 06:00:00 17,1 10,2 15,7 32,2 27,4 13 7 17 9 NE 1017,1 60 0 0,0
21.06.2017 05:00:00 17,0 10,1 16,2 32,3 27,4 9 5 15 8 NE 1017,4 60 0 0,0
21.06.2017 04:00:00 17,6 10,0 16,2 32,6 27,4 11 6 14 8 NE 1017,4 60 0 0,0
21.06.2017 03:00:00 17,2 10,1 16,6 32,7 27,4 11 6 13 7 NE 1017,7 60 0 0,0
21.06.2017 02:00:00 18,7 9,7 17,9 32,8 27,3 9 5 12 7 ENE 1018,0 60 0 0,0
21.06.2017 01:00:00 19,8 9,7 19,1 32,8 27,4 10 5 17 9 ENE 1018,2 60 0 0,0
21.06.2017 00:00:00 20,6 9,5 19,4 32,8 27,3 9 5 12 7 NE 1018,3 60 0 0,0
20.06.2017 23:00:00 22,2 9,4 21,3 32,8 27,3 6 4 8 5 ENE 1018,3 60 0 0,0
20.06.2017 22:00:00 23,9 8,3 22,7 32,6 27,3 4 2 8 4 ENE 1017,9 60 0 0,0
20.06.2017 21:00:00 27,1 6,5 25,6 32,4 27,3 5 3 20 11 WNW 1017,5 60 28 0,0
20.06.2017 20:00:00 29,6 7,5 30,8 32,2 27,3 11 6 17 9 WNW 1017,7 60 60 0,0
20.06.2017 19:00:00 30,7 7,8 32,2 31,9 27,3 10 5 19 10 SW 1017,7 60 60 0,0
20.06.2017 18:00:00 29,0 16,2 31,5 31,6 27,3 14 8 25 13 S 1018,3 60 60 0,0
20.06.2017 17:00:00 28,8 17,3 30,7 31,4 27,3 17 9 31 17 S 1018,6 60 60 0,0

tt = Température de l'air
td = dewpoint
tt 5cm = Température de l'air 5cm
tt -20cm = Température de l'air -20cm
tt -100cm = Température de l'air -100cm
ff = Vitesse du vent
fx = gusts
dd = Direction du vent
ppp = reduced air pressure
vv = visibility
sd = Ensoleillement
rr = Quantités de précipitations

stations d'obs. à proximité